Location: Norwich
(42.5310°N, 75.5240°W)
Time: 22:44:32
(UTC-04:00)

Envisat - Pass Details

Date: 25 March 2019
Orbit: 764 x 766 km, 98.2° (Epoch: 20 April)

Event Time Altitude Azimuth Distance (km) Brightness Sun altitude
Rises 21:07:03 0° 218° (SW) 3,221 6.4 -20.0°
Reaches altitude 10° 21:10:49 10° 247° (WSW) 2,301 6.0 -20.6°
Maximum altitude 21:12:55 12° 272° (W) 2,134 6.2 -21.0°
Drops below altitude 10° 21:15:02 10° 296° (WNW) 2,308 6.7 -21.3°
Sets 21:18:51 0° 326° (NW) 3,240 7.2 -22.0°
